Showing default

COSMO, 68460

Orbit data source: Space-Track

COSMO, 68460 is a payload satellite owned by Colorado (US) in SSO that was launched on Mon, 30 Mar 2026 UTC via an FALCON 9 launch vehicle from the Air Force Western Test Range (AFWTR). Payload-class satellites include a variety of spacecraft equipped with specific instruments for various scientific and technological missions. These include communications satellites like Starlink; space stations such as the ISS; scientific satellites like the Hubble; Earth observation satellites from companies like Planet Labs, Umbra, and HawkEye 360; GPS; miniature CubeSats for education and research; and military/defense satellites.

Loading next visibility...
Identifier
68460, 2026-067AW
Orbit
SSO
Country
Flag of USUS
Related business
Manufacturer
Colorado
Mission
Operational Amateur Science
Bus & Motor
CUBESAT 6UXL, Unknown motor
Mass
~10 kg wet, ~10 kg dry
Launch date (UTC)
2026-03-30 (5 months ago)
Launch vehicle
FALCON 9
Launch site
Air Force Western Test Range (AFWTR)
Object type
Payload
Rocket body
Debris
Shape & HBR
Box, 0.3 m
Radar Cross Section
0.075 m², Medium (>0.1 m² and < 1m²)

Expand to show TLE details & history
Last TLE update: 15 hours ago

TLE from 15 hours ago
0 COSMO
1 68460U 26067AW  26235.59790993  .00010178  00000-0  48767-3 0  9996
2 68460  97.4532 192.9373 0005558 172.4325 187.6994 15.19105806 22168
Epoch: 2026-08-23T14:20Z
TLE epoch observation values (Epoch: 2026-08-23T14:20:59.417Z)
Latitude
-0.00009°
Longitude
5.79807°
Altitude
515.424 km
Speed
7.604 km/s
True Right ascension
12h 51m 44s
True Declination
0° 00' 00"
Sunlit
Object was in daylight at epoch
Visualization orbit readout
Latitude
Unknown
Longitude
Unknown
Altitude
Unknown
Speed
Unknown
Apparent Right ascension
Unknown
Apparent Declination
Unknown
Sunlit
N/A
Visualization observer readout
Local Sidereal Time
20:02:24
Azimuth
Unknown
Elevation
Unknown
Doppler factor
Unknown
Orbital elements
Apogee altitude
509.337 km
Perigee altitude
501.685 km
Semi-major axis
6,883.648 km
Eccentricity
0.00056
Inclination
97.4532°
RAAN
192.9373°
Arg. of periapsis
172.4325°
True anomaly
187.69087°
Mean anomaly
187.6994°
Eccentric anomaly
187.69514°
Mean motion
3.80028 °/min
Orbital period
94.73 mins
BSTAR
0.00048767
Loading maneuver chart data...
Computing Atmospheric mass density...
Loading historical data...
Loading historical data...
Loading historical data...
Loading historical data...
Loading historical data...
Loading historical data...
Loading historical data...

Documentation

Showing up to 5 results
|